This is the latest recevied weather packets stored in our database for station/object W4ZHA. If no packets are shown the sender has not sent any weather packets the latest 10 day(s).
| Time | Temp. | Humidity | Pressure | Rain* | Wind** | Luminosity | Snow |
|---|---|---|---|---|---|---|---|
| 1788008611 | 23.89° C | 68% | 1021 hPa | 0 mm | - | 35 W/m² | - |
| 1788008308 | 23.89° C | 68% | 1021 hPa | 0 mm | - | 36 W/m² | - |
| 1788008006 | 23.89° C | 68% | 1021 hPa | 0 mm | - | 33 W/m² | - |
| 1788007705 | 23.89° C | 69% | 1020.6 hPa | 0 mm | - | 32 W/m² | - |
| 1788007401 | 23.33° C | 69% | 1020.6 hPa | 0 mm | - | 30 W/m² | - |
| 1788007100 | 22.78° C | 71% | 1020.6 hPa | 0 mm | - | 29 W/m² | - |
| 1788006799 | 21.67° C | 75% | 1020.6 hPa | 0 mm | - | 27 W/m² | - |
| 1788006494 | 21.67° C | 75% | 1020.6 hPa | 0 mm | - | 26 W/m² | - |
| 1788006189 | 21.67° C | 75% | 1020.6 hPa | 0 mm | - | 25 W/m² | - |
| 1788005887 | 21.67° C | 75% | 1021 hPa | 0 mm | - | 23 W/m² | - |
| 1788005582 | 21.11° C | 75% | 1021 hPa | 0 mm | - | 22 W/m² | - |
| 1788005282 | 21.11° C | 75% | 1020.6 hPa | 0 mm | - | 20 W/m² | - |
| 1788004980 | 21.11° C | 75% | 1020.6 hPa | 0 mm | - | 19 W/m² | - |
| 1788004679 | 21.11° C | 75% | 1020.6 hPa | 0 mm | - | 17 W/m² | - |
| 1788004375 | 21.11° C | 75% | 1020.6 hPa | 0 mm | - | 14 W/m² | - |
| 1788004068 | 21.11° C | 76% | 1020.6 hPa | 0 mm | - | 12 W/m² | - |
| 1788003767 | 21.11° C | 76% | 1020.6 hPa | 0 mm | - | 10 W/m² | - |
| 1788003462 | 20.56° C | 76% | 1020.6 hPa | 0 mm | - | 8 W/m² | - |
| 1788003162 | 20.56° C | 76% | 1020.3 hPa | 0 mm | - | 5 W/m² | - |
| 1788002856 | 20.56° C | 75% | 1020.3 hPa | 0 mm | - | 3 W/m² | - |
| 1788002552 | 20.56° C | 75% | 1020.6 hPa | 0 mm | - | 1 W/m² | - |
| 1788002247 | 20.56° C | 75% | 1020.3 hPa | 0 mm | - | 0 W/m² | - |
| 1788001946 | 21.11° C | 75% | 1020.3 hPa | 0 mm | - | 0 W/m² | - |
| 1788001637 | 21.11° C | 75% | 1020 hPa | 0 mm | - | 0 W/m² | - |
| 1788001336 | 21.11° C | 75% | 1020 hPa | 0 mm | - | 0 W/m² | - |
* Rain latest hour (hover to see other rain measurements)
** Current wind speed in m/s (hover to see current wind gust speed)